Location: Hains Lake
(37.8540°N, 99.8578°W)
Time: 10:28:45
(UTC+00:00)

Cosmos 2242 Rocket - Pass Details

Date: 11 December 2019
Orbit: 617 x 652 km, 82.5° (Epoch: 23 January)

Event Time Altitude Azimuth Distance (km) Brightness Sun altitude
Rises 23:48:07 0° 177° (S) 2,944 7.3 -5.7°
Reaches altitude 10° 23:50:22 10° 174° (S) 2,042 6.5 -6.1°
Maximum altitude 23:54:51 62° 94° (E) 735 3.7 -6.9°
Drops below altitude 10° 23:59:23 10° 14° (NNE) 2,066 5.9 -7.7°
Sets 00:01:40 0° 11° (NNE) 2,982 6.7 -8.1°
